FW7644 Weather Reports


time (UTC)temp
C
wind
direction
speed
KPH
gust
KPH
rain 1hr
cm
rain 24hr
cm
rain mn
cm
humidity
%
barometer
mb
20260904195656 16 0.0 0.0 0.03 0.51 0.51 99 1017.1
20260904195154 16 0.0 0.0 0.03 0.51 0.51 99 1017.0
20260904194653 17 0.0 0.0 0.03 0.51 0.51 98 1017.2
20260904194151 17 0.0 0.0 0.03 0.51 0.51 98 1017.3
20260904193649 17 0.0 0.0 0.03 0.51 0.51 98 1017.4
20260904193147 17 0.0 0.0 0.03 0.51 0.51 98 1017.6
20260904192646 17 0.0 0.0 0.03 0.51 0.51 97 1017.6
20260904192144 17 0.0 0.0 0.03 0.51 0.51 97 1017.2
20260904191642 17 0.0 0.0 0.03 0.51 0.51 96 1017.2
20260904191140 17 0.0 0.0 0.03 0.51 0.51 96 1017.1
20260904190638 17 0.0 0.0 0.03 0.51 0.51 96 1016.7
20260904190137 17 0.0 0.0 0.00 0.48 0.48 97 1016.1
20260904185635 17 0.0 0.0 0.00 0.48 0.48 95 1016.3
20260904185134 17 0.0 0.0 0.00 0.48 0.48 95 1016.4
20260904184632 17 0.0 0.0 0.00 0.48 0.48 94 1016.5
20260904184130 17 0.0 0.0 0.00 0.48 0.48 94 1016.2
20260904183628 17 0.0 0.0 0.00 0.48 0.48 93 1015.9
20260904183127 17 0.0 0.0 0.00 0.48 0.48 96 1016.3
20260904182625 17 0.0 0.0 0.05 0.48 0.48 96 1016.2
20260904182123 17 0.0 0.0 0.05 0.48 0.48 95 1016.3
20260904181622 17 0.0 0.0 0.10 0.48 0.48 95 1016.4
20260904181120 17 0.0 0.0 0.10 0.48 0.48 96 1016.7
20260904180619 17 0.0 0.0 0.28 0.48 0.48 96 1016.7
20260904180117 17 0.0 0.0 0.28 0.48 0.48 96 1016.6
20260904175615 17 0.0 0.0 0.43 0.48 0.48 97 1016.3
20260904175113 17 0.0 0.0 0.43 0.48 0.48 97 1016.1
20260904174613 16 0.0 0.0 0.48 0.48 0.48 98 1016.0
20260904174111 16 0.0 0.0 0.48 0.48 0.48 97 1016.3
20260904173609 16 0.0 0.0 0.48 0.48 0.48 97 1016.7
20260904173107 16 0.0 0.0 0.48 0.48 0.48 95 1016.3
20260904172605 16 0.0 0.0 0.46 0.46 0.46 93 1016.4
20260904172104 16 0.0 0.0 0.43 0.43 0.43 93 1017.5
20260904171602 16 0.0 0.0 0.43 0.43 0.43 93 1017.5
20260904171100 16 0.0 0.0 0.41 0.41 0.41 93 1018.1
20260904170559 16 0.0 0.0 0.36 0.36 0.36 88 1018.5
20260904170057 17 0.0 0.0 0.23 0.23 0.23 82 1018.2
20260904165555 17 0.0 0.0 0.15 0.15 0.15 76 1017.1
20260904165054 21 0.0 0.0 0.08 0.08 0.08 60 1016.3
20260904164552 22 0.0 0.0 0.00 0.00 0.00 46 1015.8
20260904164050 23 0.0 0.0 0.00 0.00 0.00 44 1015.6
20260904163548 23 0.0 0.0 0.00 0.00 0.00 44 1015.5
20260904163047 23 0.0 0.0 0.00 0.00 0.00 42 1015.5
20260904162545 24 0.0 0.0 0.00 0.00 0.00 42 1015.4
20260904162043 25 0.0 0.0 0.00 0.00 0.00 40 1015.4
20260904161541 24 0.0 0.0 0.00 0.00 0.00 39 1015.5
20260904161039 24 0.0 0.0 0.00 0.00 0.00 41 1015.7
20260904160537 25 0.0 0.0 0.00 0.00 0.00 38 1015.8
20260904160035 25 0.0 0.0 0.00 0.00 0.00 40 1015.8
20260904155532 25 0.0 0.0 0.00 0.00 0.00 38 1015.9
20260904155030 25 0.0 0.0 0.00 0.00 0.00 39 1016.1
20260904154528 24 0.0 0.0 0.00 0.00 0.00 41 1016.4
20260904154025 25 0.0 0.0 0.00 0.00 0.00 42 1016.3
20260904153522 23 0.0 0.0 0.00 0.00 0.00 44 1016.5
20260904153020 24 0.0 0.0 0.00 0.00 0.00 43 1016.7
20260904152518 23 0.0 0.0 0.00 0.00 0.00 44 1016.8
20260904152016 24 0.0 0.0 0.00 0.00 0.00 43 1016.8
20260904151514 24 0.0 0.0 0.00 0.00 0.00 42 1017.0
20260904151012 24 0.0 0.0 0.00 0.00 0.00 40 1017.0
20260904150510 25 0.0 0.0 0.00 0.00 0.00 40 1017.1
20260904150007 25 0.0 0.0 0.00 0.00 0.00 40 1017.1
20260904145505 25 0.0 0.0 0.00 0.00 0.00 39 1017.2
20260904145003 25 0.0 0.0 0.00 0.00 0.00 39 1017.2
20260904144501 25 0.0 0.0 0.00 0.00 0.00 38 1017.3
20260904143958 25 0.0 0.0 0.00 0.00 0.00 37 1017.4
20260904143456 25 0.0 0.0 0.00 0.00 0.00 37 1017.5
20260904142954 25 0.0 0.0 0.00 0.00 0.00 38 1017.5
20260904142452 25 0.0 0.0 0.00 0.00 0.00 38 1017.6
20260904141951 25 0.0 0.0 0.00 0.00 0.00 38 1017.6
20260904141449 25 0.0 0.0 0.00 0.00 0.00 37 1017.7
20260904140946 25 0.0 0.0 0.00 0.00 0.00 38 1017.8
20260904140444 25 0.0 0.0 0.00 0.00 0.00 41 1017.9
20260904135941 24 0.0 0.0 0.00 0.00 0.00 42 1018.0
20260904135439 23 0.0 0.0 0.00 0.00 0.00 43 1018.2
20260904134937 23 0.0 0.0 0.00 0.00 0.00 42 1018.2
20260904134435 24 0.0 0.0 0.00 0.00 0.00 41 1018.2
20260904133933 25 0.0 0.0 0.00 0.00 0.00 41 1018.1
20260904133431 25 0.0 0.0 0.00 0.00 0.00 38 1018.2
20260904132928 25 0.0 0.0 0.00 0.00 0.00 40 1018.1
20260904132424 25 0.0 0.0 0.00 0.00 0.00 41 1018.1
20260904131922 26 0.0 0.0 0.00 0.00 0.00 39 1018.2
20260904131420 26 0.0 0.0 0.00 0.00 0.00 40 1018.3
20260904130918 25 0.0 0.0 0.00 0.00 0.00 42 1018.4
20260904130415 26 0.0 0.0 0.00 0.00 0.00 40 1018.5
20260904125912 26 0.0 0.0 0.00 0.00 0.00 41 1018.5
20260904125410 25 0.0 0.0 0.00 0.00 0.00 41 1018.5
20260904124907 26 0.0 0.0 0.00 0.00 0.00 40 1018.7
20260904124404 25 0.0 0.0 0.00 0.00 0.00 43 1018.8
20260904123902 23 0.0 0.0 0.00 0.00 0.00 48 1018.8
20260904123359 23 0.0 0.0 0.00 0.00 0.00 50 1018.7
20260904122856 22 0.0 0.0 0.00 0.00 0.00 52 1018.6
20260904122354 22 0.0 0.0 0.00 0.00 0.00 51 1018.6
20260904121850 23 0.0 0.0 0.00 0.00 0.00 49 1018.5
20260904121348 24 0.0 0.0 0.00 0.00 0.00 47 1018.5
20260904120845 23 0.0 0.0 0.00 0.00 0.00 48 1018.5
20260904120342 24 0.0 0.0 0.00 0.00 0.00 48 1018.4
20260904115839 23 0.0 0.0 0.00 0.00 0.00 50 1018.4
20260904115337 23 0.0 0.0 0.00 0.00 0.00 49 1018.4
20260904114835 23 0.0 0.0 0.00 0.00 0.00 51 1018.4
20260904114333 22 0.0 0.0 0.00 0.00 0.00 55 1018.4
20260904113831 23 0.0 0.0 0.00 0.00 0.00 54 1018.4
20260904113329 22 0.0 0.0 0.00 0.00 0.00 55 1018.3
20260904112826 23 0.0 0.0 0.00 0.00 0.00 52 1018.3
20260904112323 23 0.0 0.0 0.00 0.00 0.00 55 1018.3
20260904111821 21 0.0 0.0 0.00 0.00 0.00 58 1018.2
20260904111318 21 0.0 0.0 0.00 0.00 0.00 60 1018.3
20260904110816 20 0.0 0.0 0.00 0.00 0.00 62 1018.2
20260904110314 19 0.0 0.0 0.00 0.00 0.00 67 1018.0
20260904105812 18 0.0 0.0 0.00 0.00 0.00 68 1018.1
20260904105310 18 0.0 0.0 0.00 0.00 0.00 70 1018.1
20260904104808 18 0.0 0.0 0.00 0.00 0.00 69 1018.0
20260904104307 18 0.0 0.0 0.00 0.00 0.00 71 1017.9
20260904103805 17 0.0 0.0 0.00 0.00 0.00 75 1017.8
20260904103303 15 0.0 0.0 0.00 0.00 0.00 87 1017.8
20260904102801 14 0.0 0.0 0.00 0.00 0.00 90 1017.8
20260904102300 13 0.0 0.0 0.00 0.00 0.00 90 1017.8
20260904101758 13 0.0 0.0 0.00 0.00 0.00 93 1017.8
20260904101256 13 0.0 0.0 0.00 0.00 0.00 94 1017.8
20260904100754 13 0.0 0.0 0.00 0.00 0.00 95 1017.7
20260904100252 12 0.0 0.0 0.00 0.00 0.00 96 1017.7
20260904095750 12 0.0 0.0 0.00 0.00 0.00 96 1017.6
20260904095248 12 0.0 0.0 0.00 0.00 0.00 96 1017.6
20260904094747 12 0.0 0.0 0.00 0.00 0.00 96 1017.6
20260904094246 12 0.0 0.0 0.00 0.00 0.00 95 1017.5
20260904093745 12 0.0 0.0 0.00 0.00 0.00 95 1017.5
20260904093243 12 0.0 0.0 0.00 0.00 0.00 94 1017.5
20260904092741 12 0.0 0.0 0.00 0.00 0.00 94 1017.4
20260904092240 13 0.0 0.0 0.00 0.00 0.00 93 1017.4
20260904091738 13 0.0 0.0 0.00 0.00 0.00 92 1017.2
20260904091236 13 0.0 0.0 0.00 0.00 0.00 91 1017.1
20260904090735 13 0.0 0.0 0.00 0.00 0.00 91 1017.0
20260904090233 13 0.0 0.0 0.00 0.00 0.00 91 1017.1
20260904085731 13 0.0 0.0 0.00 0.00 0.00 91 1017.1
20260904085230 13 0.0 0.0 0.00 0.00 0.00 91 1017.2
20260904084728 13 0.0 0.0 0.00 0.00 0.00 90 1017.1
20260904084227 13 0.0 0.0 0.00 0.00 0.00 90 1017.0
20260904083726 13 0.0 0.0 0.00 0.00 0.00 89 1017.0
20260904083224 13 0.0 0.0 0.00 0.00 0.00 89 1017.0
20260904082723 13 0.0 0.0 0.00 0.00 0.00 89 1017.0
20260904082223 13 0.0 0.0 0.00 0.00 0.00 89 1016.9
20260904081721 13 0.0 0.0 0.00 0.00 0.00 89 1016.9
20260904081219 13 0.0 0.0 0.00 0.00 0.00 89 1016.7
20260904080718 13 0.0 0.0 0.00 0.00 0.00 89 1016.7
20260904080216 13 0.0 0.0 0.00 0.00 0.00 89 1016.7
20260904075714 13 0.0 0.0 0.00 0.00 0.00 89 1016.5
20260904075212 13 0.0 0.0 0.00 0.00 0.00 89 1016.5
20260904074711 13 0.0 0.0 0.00 0.00 0.00 88 1016.5
20260904074210 13 0.0 0.0 0.00 0.00 0.00 89 1016.5
20260904073708 13 0.0 0.0 0.00 0.00 0.00 88 1016.5
20260904073207 13 0.0 0.0 0.00 0.00 0.00 88 1016.4
20260904072705 13 0.0 0.0 0.00 0.00 0.00 88 1016.2
20260904072204 13 0.0 0.0 0.00 0.00 0.00 88 1016.4
20260904071702 13 0.0 0.0 0.00 0.00 0.00 87 1016.4
20260904071201 13 0.0 0.0 0.00 0.00 0.00 87 1016.5
20260904070659 13 0.0 0.0 0.00 0.00 0.00 87 1016.3
20260904070158 13 0.0 0.0 0.00 0.00 0.00 88 1016.3
20260904065656 13 0.0 0.0 0.00 0.00 0.00 89 1016.2
20260904065155 12 0.0 0.0 0.00 0.00 0.00 89 1016.2
20260904064654 12 0.0 0.0 0.00 0.00 0.00 89 1016.1
20260904064152 12 0.0 0.0 0.00 0.00 0.00 89 1016.2
20260904063651 12 0.0 0.0 0.00 0.00 0.00 89 1016.2
20260904063149 12 0.0 0.0 0.00 0.00 0.00 88 1016.2
20260904062648 12 0.0 0.0 0.00 0.00 0.00 88 1016.2
20260904062146 12 0.0 0.0 0.00 0.00 0.00 89 1016.2
20260904061645 12 0.0 0.0 0.00 0.00 0.00 89 1016.1
20260904061143 12 0.0 0.0 0.00 0.00 0.00 89 1016.0
20260904060642 12 0.0 0.0 0.00 0.00 0.00 88 1016.0
20260904060140 12 0.0 0.0 0.00 0.00 0.00 88 1016.1
20260904055639 12 0.0 0.0 0.00 0.00 0.00 88 1016.1
20260904055137 12 0.0 0.0 0.00 0.00 0.00 89 1016.1
20260904054635 12 0.0 0.0 0.00 0.00 0.00 88 1016.3
20260904054134 12 0.0 0.0 0.00 0.00 0.00 88 1016.4
20260904053633 12 0.0 0.0 0.00 0.00 0.00 88 1016.6
20260904053131 12 0.0 0.0 0.00 0.00 0.00 88 1016.6
20260904052629 12 0.0 0.0 0.00 0.00 0.00 88 1016.6
20260904052128 12 0.0 0.0 0.00 0.00 0.00 88 1016.6
20260904051626 12 0.0 0.0 0.00 0.00 0.00 88 1016.6
20260904051124 12 0.0 0.0 0.00 0.00 0.00 88 1016.7
20260904050623 12 0.0 0.0 0.00 0.00 0.00 88 1016.6
20260904050121 12 0.0 0.0 0.00 0.00 0.00 88 1016.6
20260904045620 12 0.0 0.0 0.00 0.00 0.00 88 1016.6
20260904045118 12 0.0 0.0 0.00 0.00 0.00 89 1016.7
20260904044617 11 0.0 0.0 0.00 0.00 0.00 89 1016.7
20260904044116 11 0.0 0.0 0.00 0.00 0.00 88 1016.7
20260904043614 11 0.0 0.0 0.00 0.00 0.00 89 1016.7
20260904043112 11 0.0 0.0 0.00 0.00 0.00 89 1016.7
20260904042611 11 0.0 0.0 0.00 0.00 0.00 88 1016.7
20260904042109 11 0.0 0.0 0.00 0.00 0.00 88 1016.7
20260904041608 11 0.0 0.0 0.00 0.00 0.00 88 1016.8
20260904041106 11 0.0 0.0 0.00 0.00 0.00 88 1016.9
20260904040605 11 0.0 0.0 0.00 0.00 0.00 88 1016.9
20260904040103 11 0.0 0.0 0.00 0.00 0.00 89 1016.9
20260904035602 11 0.0 0.0 0.00 0.00 0.00 89 1016.9
20260904035100 11 0.0 0.0 0.00 0.00 0.00 89 1016.9
20260904034559 11 0.0 0.0 0.00 0.00 0.00 89 1016.9
20260904034057 11 0.0 0.0 0.00 0.00 0.00 88 1016.8
20260904033556 11 0.0 0.0 0.00 0.00 0.00 88 1016.9
20260904033054 11 0.0 0.0 0.00 0.00 0.00 88 1017.0
20260904032552 11 0.0 0.0 0.00 0.00 0.00 87 1016.9
20260904032051 11 0.0 0.0 0.00 0.00 0.00 87 1016.9
20260904031549 11 0.0 0.0 0.00 0.00 0.00 87 1017.0
20260904031047 11 0.0 0.0 0.00 0.00 0.00 87 1017.1
20260904030546 11 0.0 0.0 0.00 0.00 0.00 87 1017.2
20260904030045 11 0.0 0.0 0.00 0.00 0.00 87 1017.2
20260904025543 11 0.0 0.0 0.00 0.00 0.00 87 1017.2
20260904025042 11 0.0 0.0 0.00 0.00 0.00 87 1017.2
20260904024540 11 0.0 0.0 0.00 0.00 0.00 87 1017.2
20260904024039 11 0.0 0.0 0.00 0.00 0.00 87 1017.1
20260904023537 12 0.0 0.0 0.00 0.00 0.00 87 1017.0
20260904023036 12 0.0 0.0 0.00 0.00 0.00 87 1017.0
20260904022534 12 0.0 0.0 0.00 0.00 0.00 87 1017.1
20260904022032 12 0.0 0.0 0.00 0.00 0.00 86 1017.1
20260904021531 12 0.0 0.0 0.00 0.00 0.00 86 1017.2
20260904021029 12 0.0 0.0 0.00 0.00 0.00 86 1017.3
20260904020527 12 0.0 0.0 0.00 0.00 0.00 86 1017.3
20260904020025 12 0.0 0.0 0.00 0.00 0.00 86 1017.3
20260904015524 12 0.0 0.0 0.00 0.00 0.00 86 1017.3
20260904015022 12 0.0 0.0 0.00 0.00 0.00 84 1017.3
20260904014520 12 0.0 0.0 0.00 0.00 0.00 84 1017.4
20260904014019 12 0.0 0.0 0.00 0.00 0.00 84 1017.4
20260904013517 12 0.0 0.0 0.00 0.00 0.00 84 1017.4
20260904013015 12 0.0 0.0 0.00 0.00 0.00 84 1017.4
20260904012514 12 0.0 0.0 0.00 0.00 0.00 83 1017.4
20260904012010 12 0.0 0.0 0.00 0.00 0.00 82 1017.4
20260904011509 12 0.0 0.0 0.00 0.00 0.00 82 1017.4
20260904010505 12 0.0 0.0 0.00 0.00 0.00 81 1017.4
20260904010003 13 0.0 0.0 0.00 0.00 0.00 81 1017.4
20260904005000 13 0.0 0.0 0.00 0.00 0.00 81 1017.4
20260904004458 13 0.0 0.0 0.00 0.00 0.00 81 1017.4
20260904002953 13 0.0 0.0 0.00 0.00 0.00 80 1017.5
20260904002453 13 0.0 0.0 0.00 0.00 0.00 80 1017.5
20260904001951 13 0.0 0.0 0.00 0.00 0.00 79 1017.5
20260904001448 13 0.0 0.0 0.00 0.00 0.00 79 1017.5
20260904000946 13 0.0 0.0 0.00 0.00 0.00 79 1017.5
20260904000447 13 0.0 0.0 0.00 0.00 0.00 78 1017.5
20260903235440 14 0.0 0.0 0.00 0.00 0.00 77 1017.3
20260903234938 14 0.0 0.0 0.00 0.00 0.00 77 1017.4
20260903234435 14 0.0 0.0 0.00 0.00 0.00 75 1017.3
20260903233933 14 0.0 0.0 0.00 0.00 0.00 75 1017.3
20260903233431 15 0.0 0.0 0.00 0.00 0.00 74 1017.3
20260903232427 15 0.0 0.0 0.00 0.00 0.00 74 1017.2
20260903231925 15 0.0 0.0 0.00 0.00 0.00 73 1017.2
20260903230922 15 0.0 0.0 0.00 0.00 0.00 71 1017.1
20260903230420 15 0.0 0.0 0.00 0.00 0.00 71 1017.1
20260903225324 15 0.0 0.0 0.00 0.00 0.00 71 1017.0
20260903224821 15 0.0 0.0 0.00 0.00 0.00 70 1017.0
20260903224319 16 0.0 0.0 0.00 0.00 0.00 70 1017.0
20260903223817 16 0.0 0.0 0.00 0.00 0.00 69 1017.0
20260903223315 16 0.0 0.0 0.00 0.00 0.00 68 1016.9
20260903222813 16 0.0 0.0 0.00 0.00 0.00 66 1016.9
20260903222311 16 0.0 0.0 0.00 0.00 0.00 66 1016.9
20260903221810 16 0.0 0.0 0.00 0.00 0.00 63 1016.9
20260903221308 17 0.0 0.0 0.00 0.00 0.00 62 1016.9
20260903220805 17 0.0 0.0 0.00 0.00 0.00 59 1017.0
20260903220303 17 0.0 0.0 0.00 0.00 0.00 56 1016.9
20260903215801 17 0.0 0.0 0.00 0.00 0.00 55 1016.9
20260903215258 17 0.0 0.0 0.00 0.00 0.00 53 1016.8
20260903214756 18 0.0 0.0 0.00 0.00 0.00 53 1016.8
20260903214254 18 0.0 0.0 0.00 0.00 0.00 51 1016.7
20260903213752 18 0.0 0.0 0.00 0.00 0.00 48 1016.6
20260903213250 19 0.0 0.0 0.00 0.00 0.00 46 1016.6
20260903212748 20 0.0 0.0 0.00 0.00 0.00 45 1016.6
20260903212245 20 0.0 0.0 0.00 0.00 0.00 44 1016.7
20260903211743 20 0.0 0.0 0.00 0.00 0.00 43 1016.7
20260903211241 20 0.0 0.0 0.00 0.00 0.00 43 1016.6
20260903210739 20 0.0 0.0 0.00 0.00 0.00 43 1016.5
20260903210237 20 0.0 0.0 0.00 0.00 0.00 42 1016.5
20260903205735 21 0.0 0.0 0.00 0.00 0.00 41 1016.4
20260903205233 21 0.0 0.0 0.00 0.00 0.00 39 1016.4
20260903204731 21 0.0 0.0 0.00 0.00 0.00 38 1016.4
20260903204229 22 0.0 0.0 0.00 0.00 0.00 37 1016.5
20260903203727 22 0.0 0.0 0.00 0.00 0.00 36 1016.5
20260903203225 22 0.0 0.0 0.00 0.00 0.00 36 1016.6
20260903202723 23 0.0 0.0 0.00 0.00 0.00 35 1016.5
20260903202220 23 0.0 0.0 0.00 0.00 0.00 34 1016.5
20260903201717 25 0.0 0.0 0.00 0.00 0.00 31 1016.5
20260903201215 23 0.0 0.0 0.00 0.00 0.00 33 1016.5
20260903200713 25 0.0 0.0 0.00 0.00 0.00 31 1016.6
20260903200211 26 0.0 0.0 0.00 0.00 0.00 30 1016.7